Location: *
(41.7492°S, 135.4150°W)
Time: 22:58:16
(UTC+00:00)

METEOR M2 - Pass Details

Date: 05 July 2022
Orbit: 818 x 827 km, 98.4° (Epoch: 17 August)

Event Time Altitude Azimuth Distance (km) Brightness Sun altitude
Rises 14:27:40 0° 34° (NE) 3,349 ? -21.9°
Reaches altitude 10° 14:30:05 10° 40° (NE) 2,423 ? -21.5°
Maximum altitude 14:35:08 44° 110° (ESE) 1,143 ? -20.5°
Drops below altitude 10° 14:40:15 10° 180° (S) 2,448 ? -19.6°
Sets 14:42:42 0° 186° (S) 3,388 ? -19.2°
